Cole Grade (215) Station Data

Red Flag Warning: No
Fire Weather Zone: 250
SDGE Region: North East
Lat/Lon: 33.285/-117.016

Observations

Time Wind Speed/Gust Temp(F) RH Fuel Moist Fuel Temp(F) Dewpt(F) Tmax(F) Tmin(F) Accum Precip 10-min Precip SL Press(mb)
6/27 5:00pm 281 5 G 9 87° 22% - - 44° 94.2° 80° - - 1011.0
6/27 4:50pm 285 5 G 10 87° 22% - - 43° 94.2° 80° - - 1011.0
6/27 4:40pm 278 5 G 12 87° 20% - - 42° 94.2° 80° - - 1011.0
6/27 4:30pm 277 5 G 9 88° 19% - - 41° 94.2° 80° - - 1011.0
6/27 4:20pm 278 6 G 11 88° 19% - - 41° 94.2° 80° - - 1011.0
6/27 4:10pm 280 5 G 11 89° 19% - - 41° 94.2° 80° - - 1011.0
6/27 4:00pm 278 6 G 11 89° 19% - - 41° 94.2° 80° - - 1011.0
6/27 3:50pm 290 6 G 12 89° 19% - - 42° 94.2° 80° - - 1011.0
6/27 3:40pm 283 6 G 11 89° 19% - - 42° 94.2° 80° - - 1011.0
6/27 3:30pm 271 7 G 14 90° 19% - - 41° 94.2° 80° - - 1011.0
6/27 3:20pm 276 6 G 11 90° 17% - - 40° 94.2° 80° - - 1011.0
6/27 3:10pm 269 7 G 12 91° 15% - - 37° 94.2° 80° - - 1011.0
6/27 3:00pm 264 7 G 13 90° 16% - - 37° 94.2° 80° - - 1011.0
6/27 2:50pm 269 8 G 15 90° 17% - - 40° 94.2° 80° - - 1011.0
6/27 2:40pm 262 9 G 15 90° 18% - - 41° 94.2° 80° - - 1011.0
6/27 2:30pm 254 10 G 18 91° 16% - - 38° 94.2° 80° - - 1011.0
6/27 2:20pm 267 8 G 15 91° 14% - - 35° 94.2° 80° - - 1011.0
6/27 2:10pm 271 8 G 14 92° 12% - - 33° 94.2° 80° - - 1011.0
6/27 2:00pm 268 7 G 14 92° 13% - - 33° 94.2° 80° - - 1011.0
6/27 1:50pm 266 7 G 14 92° 12% - - 32° 94.2° 80° - - 1011.0
6/27 1:40pm 263 7 G 12 92° 12% - - 32° 94.2° 80° - - 1011.0
6/27 1:30pm 261 8 G 16 92° 11% - - 31° 94.2° 80° - - 1011.0
6/27 1:20pm 270 7 G 14 92° 13% - - 34° 94.2° 80° - - 1011.0
6/27 1:10pm 276 7 G 13 92° 13% - - 34° 94.2° 80° - - 1011.0
6/27 1:00pm 276 6 G 14 92° 12% - - 33° 94.2° 80° - - 1011.0
6/27 12:50pm 263 6 G 12 92° 12% - - 32° 94.2° 80° - - 1011.0
6/27 12:40pm 269 7 G 13 92° 11% - - 30° 94.2° 80° - - 1011.0
6/27 12:30pm 273 5 G 12 92° 10% - - 28° 94.2° 80° - - 1011.0
6/27 12:20pm 279 4 G 10 93° 10% - - 29° 94.2° 80° - - 1011.0
6/27 12:10pm 287 5 G 11 92° 10% - - 28° 92.5° 80° - - 1012.0
6/27 12:00pm 270 5 G 12 92° 10% - - 27° 92.4° 80° - - 1012.0
6/27 11:50am 275 5 G 10 92° 9% - - 25° 92.2° 80° - - 1012.0
6/27 11:40am 279 4 G 8 91° 10% - - 26° 92.2° 80° - - 1012.0
6/27 11:30am 271 5 G 10 92° 9% - - 26° 92.2° 80° - - 1012.0
6/27 11:20am 275 5 G 10 91° 9% - - 25° 91.4° 80° - - 1012.0
6/27 11:10am 262 3 G 9 91° 9% - - 25° 91.4° 80° - - 1012.0
6/27 11:00am 260 3 G 8 91° 9% - - 23° 91.4° 80° - - 1012.0
6/27 10:50am 269 3 G 6 90° 9% - - 24° 90.7° 80° - - 1012.0
6/27 10:40am 313 2 G 6 90° 10% - - 27° 90.3° 80° - - 1012.0
6/27 10:30am 281 3 G 6 89° 11% - - 27° 89.5° 80° - - 1012.0
6/27 10:20am 289 2 G 5 89° 11% - - 27° 89.1° 80° - - 1012.0
6/27 10:10am 280 3 G 7 88° 10% - - 25° 88.9° 80° - - 1012.0
6/27 10:00am 292 3 G 7 88° 10% - - 25° 88.6° 80° - - 1012.0
6/27 9:50am 257 4 G 7 88° 10% - - 25° 87.8° 80° - - 1012.0
6/27 9:40am 247 3 G 7 87° 10% - - 24° 87.5° 80° - - 1012.0
6/27 9:30am 236 3 G 7 87° 10% - - 24° 87.2° 80° - - 1012.0
6/27 9:20am 233 2 G 6 86° 10% - - 24° 86.9° 80° - - 1012.0
6/27 9:10am 232 2 G 4 86° 10% - - 22° 86.4° 80° - - 1012.0
6/27 9:00am 259 2 G 4 86° 10% - - 23° 86.3° 80° - - 1012.0
6/27 8:50am 230 2 G 4 85° 10% - - 22° 86° 80° - - 1012.0
6/27 8:40am 268 1 G 4 86° 9% - - 21° 86° 80° - - 1012.0
6/27 8:30am 250 2 G 4 85° 9% - - 19° 85° 80° - - 1012.0
6/27 8:20am 231 2 G 4 84° 9% - - 18° 84.2° 80° - - 1012.0
6/27 8:10am 205 1 G 3 83° 11% - - 23° 84.1° 80° - - 1013.0
6/27 8:00am 212 2 G 3 83° 10% - - 22° 84.1° 80° - - 1013.0
6/27 7:50am 204 2 G 3 83° 11% - - 22° 84.1° 80° - - 1013.0
6/27 7:40am 204 1 G 3 82° 11% - - 22° 84.1° 80° - - 1012.0
6/27 7:30am 213 2 G 3 82° 12% - - 23° 84.1° 80° - - 1012.0
6/27 7:20am 193 2 G 3 82° 12% - - 23° 84.1° 80° - - 1012.0
6/27 7:10am 203 1 G 2 82° 11% - - 22° 84.1° 80° - - 1012.0
6/27 7:00am 208 1 G 2 82° 11% - - 22° 84.1° 80° - - 1012.0
6/27 6:50am 213 2 G 3 82° 10% - - 21° 84.1° 80° - - 1012.0
6/27 6:40am 194 1 G 2 82° 10% - - 21° 84.1° 80° - - 1012.0
6/27 6:30am 175 1 G 2 82° 11% - - 21° 84.1° 80° - - 1012.0
6/27 6:20am 168 2 G 2 81° 11% - - 22° 84.1° 80° - - 1012.0
6/27 6:10am 167 2 G 2 81° 11% - - 22° 84.1° 80° - - 1012.0
6/27 6:00am 143 1 G 2 81° 12% - - 23° 84.1° 80° - - 1012.0
6/27 5:50am 163 1 G 1 80° 12% - - 23° 84.1° 80° - - 1012.0
6/27 5:40am 145 0 G 1 80° 12% - - 23° 84.1° 80° - - 1012.0
6/27 5:30am 199 1 G 1 81° 12% - - 23° 84.1° 80° - - 1012.0
6/27 5:20am 202 1 G 1 81° 12% - - 23° 84.1° 80° - - 1012.0
6/27 5:10am 207 1 G 1 81° 12% - - 23° 84.1° 80° - - 1012.0
6/27 5:00am 184 1 G 2 81° 12% - - 23° 84.1° 80° - - 1012.0
6/27 4:50am 184 1 G 2 81° 12% - - 23° 84.1° 80° - - 1012.0
6/27 4:40am 175 1 G 2 81° 12% - - 23° 84.1° 80° - - 1012.0
6/27 4:30am 188 1 G 2 81° 12% - - 23° 84.1° 80° - - 1012.0
6/27 4:20am 208 1 G 1 81° 12% - - 23° 84.1° 80° - - 1012.0
6/27 4:10am 210 1 G 2 82° 11% - - 23° 84.1° 80° - - 1012.0
6/27 4:00am 209 2 G 2 83° 11% - - 23° 84.1° 80° - - 1012.0
6/27 3:50am 183 1 G 2 83° 11% - - 23° 84.1° 80° - - 1012.0
6/27 3:40am 169 2 G 2 84° 11% - - 23° 84.1° 80° - - 1012.0
6/27 3:30am 149 1 G 2 84° 11% - - 23° 84.1° 80° - - 1012.0
6/27 3:20am 136 2 G 3 84° 11% - - 23° 84.1° 80° - - 1012.0
6/27 3:10am 129 2 G 3 83° 11% - - 24° 83.6° 80° - - 1012.0
6/27 3:00am 129 3 G 4 83° 11% - - 24° 83.2° 80° - - 1012.0
6/27 2:50am 131 2 G 4 83° 12% - - 24° 83.2° 80° - - 1012.0
6/27 2:40am 127 3 G 4 83° 12% - - 25° 83.2° 80° - - 1012.0
6/27 2:30am 134 3 G 4 83° 12% - - 25° 83.2° 80° - - 1012.0
6/27 2:20am 144 2 G 3 83° 12% - - 25° 83.2° 80° - - 1012.0
6/27 2:10am 153 2 G 3 83° 13% - - 26° 83.2° 80° - - 1012.0
6/27 2:00am 154 2 G 4 83° 13% - - 26° 83.2° 80° - - 1012.0
6/27 1:50am 78 2 G 3 82° 14% - - 27° 82.6° 80° - - 1012.0
6/27 1:40am 38 3 G 4 82° 16% - - 31° 82.1° 80° - - 1012.0
6/27 1:30am 21 4 G 4 81° 17% - - 33° 82.1° 80° - - 1012.0
6/27 1:20am 21 4 G 5 82° 17% - - 33° 82.1° 80° - - 1013.0
6/27 1:10am 52 2 G 4 81° 17% - - 31° 81.7° 80° - - 1013.0
6/27 1:00am 136 2 G 3 81° 16% - - 31° 81.5° 80° - - 1013.0
6/27 12:50am 98 2 G 3 81° 17% - - 32° 81.5° 80.2° - - 1013.0
6/27 12:40am 77 2 G 3 81° 17% - - 32° 81.5° 80.5° - - 1013.0
6/27 12:30am 134 2 G 5 81° 17% - - 32° 81.5° 80.7° - - 1013.0
6/27 12:20am 123 2 G 5 81° 18% - - 33° 81.2° 80.7° - - 1013.0
6/27 12:10am 129 2 G 6 81° 18% - - 34° 81.2° 80.7° - - 1013.0
6/27 12:00am 121 3 G 6 81° 19% - - 35° 97.8° 78.4° - - 1013.0
6/26 11:50pm 127 3 G 6 80° 21% - - 36° 97.8° 78.4° - - 1013.0
6/26 11:40pm 124 3 G 5 79° 22% - - 38° 97.8° 78.4° - - 1014.0
6/26 11:30pm 133 2 G 5 79° 23% - - 38° 97.8° 78.4° - - 1014.0
6/26 11:20pm 138 2 G 4 79° 23% - - 38° 97.8° 78.4° - - 1014.0
6/26 11:10pm 126 2 G 4 79° 24% - - 39° 97.8° 78.4° - - 1014.0
6/26 11:00pm 125 2 G 4 79° 24% - - 40° 97.8° 78.4° - - 1014.0
6/26 10:50pm 136 2 G 4 80° 24% - - 40° 97.8° 78.4° - - 1014.0
6/26 10:40pm 142 2 G 3 79° 25% - - 40° 97.8° 78.4° - - 1014.0
6/26 10:30pm 143 2 G 3 79° 27% - - 42° 97.8° 78.4° - - 1014.0
6/26 10:20pm 158 3 G 4 79° 26% - - 41° 97.8° 78.6° - - 1014.0
6/26 10:10pm 175 3 G 4 79° 25% - - 41° 97.8° 78.7° - - 1014.0
6/26 10:00pm 220 2 G 3 79° 25% - - 41° 97.8° 78.9° - - 1014.0
6/26 9:50pm 219 2 G 3 80° 23% - - 39° 97.8° 79.5° - - 1014.0
6/26 9:40pm 218 2 G 2 81° 21% - - 38° 97.8° 80.4° - - 1013.0
6/26 9:30pm 214 2 G 3 82° 20% - - 37° 97.8° 80.9° - - 1013.0
6/26 9:20pm 182 1 G 2 82° 19% - - 37° 97.8° 80.9° - - 1013.0
6/26 9:10pm 161 2 G 3 83° 19% - - 36° 97.8° 80.9° - - 1013.0
6/26 9:00pm 159 2 G 3 83° 18% - - 36° 97.8° 80.9° - - 1013.0
6/26 8:50pm 155 2 G 3 83° 19% - - 36° 97.8° 80.9° - - 1013.0
6/26 8:40pm 166 2 G 4 83° 19% - - 37° 97.8° 80.9° - - 1013.0
6/26 8:30pm 160 2 G 3 84° 19% - - 37° 97.8° 80.9° - - 1013.0
6/26 8:20pm 164 2 G 2 84° 19% - - 37° 97.8° 80.9° - - 1013.0
6/26 8:10pm 186 1 G 2 85° 18% - - 36° 97.8° 80.9° - - 1013.0
6/26 8:00pm 225 1 G 2 85° 17% - - 35° 97.8° 80.9° - - 1013.0
6/26 7:50pm 263 2 G 3 86° 15% - - 33° 97.8° 80.9° - - 1012.0
6/26 7:40pm 268 1 G 5 87° 14% - - 32° 97.8° 80.9° - - 1012.0
6/26 7:30pm 257 4 G 8 88° 13% - - 30° 97.8° 80.9° - - 1012.0
6/26 7:20pm 247 4 G 8 88° 13% - - 31° 97.8° 80.9° - - 1012.0
6/26 7:10pm 256 4 G 7 89° 12% - - 31° 97.8° 80.9° - - 1012.0
6/26 7:00pm 255 5 G 9 90° 12% - - 30° 97.8° 80.9° - - 1012.0
6/26 6:50pm 254 6 G 9 90° 11% - - 28° 97.8° 80.9° - - 1012.0
6/26 6:40pm 258 6 G 9 90° 11% - - 27° 97.8° 80.9° - - 1012.0
6/26 6:30pm 264 5 G 9 91° 11% - - 28° 97.8° 80.9° - - 1012.0
6/26 6:20pm 266 5 G 9 91° 11% - - 28° 97.8° 80.9° - - 1012.0
6/26 6:10pm 268 6 G 10 91° 11% - - 29° 97.8° 80.9° - - 1012.0
6/26 6:00pm 266 5 G 10 92° 11% - - 29° 97.8° 80.9° - - 1012.0
6/26 5:50pm 257 7 G 10 92° 11% - - 30° 97.8° 80.9° - - 1012.0
6/26 5:40pm 263 6 G 10 93° 11% - - 31° 97.8° 80.9° - - 1012.0
6/26 5:30pm 257 5 G 10 93° 11% - - 30° 97.8° 80.9° - - 1012.0
6/26 5:20pm 260 6 G 10 93° 11% - - 32° 97.8° 80.9° - - 1012.0
6/26 5:10pm 264 5 G 11 93° 12% - - 32° 97.8° 80.9° - - 1012.0
6/26 5:00pm 267 6 G 10 94° 12% - - 34° 97.8° 80.9° - - 1012.0
6/26 4:50pm 262 6 G 11 94° 12% - - 33° 97.8° 80.9° - - 1012.0
6/26 4:40pm 275 5 G 10 94° 12% - - 34° 97.8° 80.9° - - 1012.0
6/26 4:30pm 269 4 G 9 94° 13% - - 36° 97.8° 80.9° - - 1012.0
6/26 4:20pm 271 6 G 12 94° 13% - - 35° 97.8° 80.9° - - 1012.0
6/26 4:10pm 267 6 G 11 94° 13% - - 36° 97.8° 80.9° - - 1013.0
6/26 4:00pm 274 6 G 10 94° 13% - - 36° 97.8° 80.9° - - 1013.0
6/26 3:50pm 267 7 G 13 94° 13% - - 35° 97.8° 80.9° - - 1013.0
6/26 3:40pm 270 7 G 13 95° 12% - - 35° 97.8° 80.9° - - 1013.0
6/26 3:30pm 272 8 G 13 94° 12% - - 34° 97.8° 80.9° - - 1013.0
6/26 3:20pm 255 9 G 15 94° 13% - - 36° 97.8° 80.9° - - 1013.0
6/26 3:10pm 262 8 G 16 94° 14% - - 37° 97.8° 80.9° - - 1013.0
6/26 3:00pm 264 7 G 14 94° 15% - - 39° 97.8° 80.9° - - 1013.0
6/26 2:50pm 266 7 G 13 94° 14% - - 38° 97.8° 80.9° - - 1013.0
6/26 2:40pm 270 8 G 15 94° 15% - - 39° 97.8° 80.9° - - 1013.0
6/26 2:30pm 270 7 G 13 94° 15% - - 39° 97.8° 80.9° - - 1013.0
6/26 2:20pm 263 9 G 15 94° 16% - - 40° 97.8° 80.9° - - 1013.0
6/26 2:10pm 273 7 G 13 94° 14% - - 38° 97.8° 80.9° - - 1013.0
6/26 2:00pm 275 7 G 12 95° 15% - - 39° 97.8° 80.9° - - 1013.0
6/26 1:50pm 289 6 G 15 95° 15% - - 39° 97.8° 80.9° - - 1013.0
6/26 1:40pm 265 8 G 15 94° 15% - - 40° 97.8° 80.9° - - 1013.0
6/26 1:30pm 263 8 G 13 95° 14% - - 38° 97.8° 80.9° - - 1013.0
6/26 1:20pm 264 9 G 15 94° 15% - - 40° 97.8° 80.9° - - 1013.0
6/26 1:10pm 262 9 G 15 95° 16% - - 41° 97.8° 80.9° - - 1013.0
6/26 1:00pm 271 7 G 14 95° 15% - - 39° 97.8° 80.9° - - 1013.0
6/26 12:50pm 268 8 G 13 95° 15% - - 39° 97.8° 80.9° - - 1013.0
6/26 12:40pm 267 8 G 14 95° 14% - - 39° 97.8° 80.9° - - 1013.0
6/26 12:30pm 263 8 G 13 95° 15% - - 40° 97.8° 80.9° - - 1013.0
6/26 12:20pm 260 8 G 13 95° 16% - - 42° 97.8° 80.9° - - 1013.0
6/26 12:10pm 264 7 G 13 95° 17% - - 43° 97.8° 80.9° - - 1013.0
6/26 12:00pm 263 7 G 11 95° 17% - - 43° 97.8° 80.9° - - 1013.0
6/26 11:50am 266 6 G 12 95° 19% - - 47° 97.8° 80.9° - - 1013.0
6/26 11:40am 262 7 G 11 95° 16% - - 41° 97.8° 80.9° - - 1013.0
6/26 11:30am 267 6 G 10 95° 15% - - 40° 97.8° 80.9° - - 1013.0
6/26 11:20am 268 6 G 11 96° 12% - - 35° 97.8° 80.9° - - 1013.0
6/26 11:10am 277 4 G 8 97° 9% - - 30° 97.8° 80.9° - - 1013.0
6/26 11:00am 280 4 G 8 96° 9% - - 30° 97.2° 80.9° - - 1013.0
6/26 10:50am 269 4 G 9 97° 9% - - 28° 97.2° 80.9° - - 1013.0
6/26 10:40am 271 4 G 9 96° 9% - - 29° 97.1° 80.9° - - 1013.0
6/26 10:30am 261 5 G 9 96° 9% - - 27° 96.5° 80.9° - - 1013.0
6/26 10:20am 260 3 G 7 96° 9% - - 29° 96.1° 80.9° - - 1013.0
6/26 10:10am 257 4 G 7 96° 10% - - 31° 96.1° 80.9° - - 1013.0
6/26 10:00am 258 3 G 6 95° 13% - - 36° 96° 80.9° - - 1013.0
6/26 9:50am 249 2 G 5 95° 14% - - 38° 95.2° 80.9° - - 1013.0
6/26 9:40am 192 1 G 3 94° 14% - - 37° 95° 80.9° - - 1013.0
6/26 9:30am 232 1 G 3 94° 13% - - 36° 94° 80.9° - - 1013.0
6/26 9:20am 228 1 G 4 93° 13% - - 36° 93.8° 80.9° - - 1013.0
6/26 9:10am 230 2 G 5 92° 14% - - 36° 93.5° 80.9° - - 1013.0
6/26 9:00am 218 3 G 5 92° 14% - - 35° 93.5° 80.9° - - 1013.0
6/26 8:50am 215 2 G 4 92° 14% - - 35° 93.5° 80.9° - - 1013.0
6/26 8:40am 221 1 G 3 91° 14% - - 35° 93.5° 80.9° - - 1013.0
6/26 8:30am 216 2 G 3 91° 15% - - 36° 93.5° 80.9° - - 1013.0
6/26 8:20am 225 1 G 2 90° 17% - - 39° 93.5° 80.9° - - 1013.0
6/26 8:10am 219 1 G 2 92° 17% - - 40° 93.5° 80.9° - - 1012.0
6/26 8:00am 95 0 G 1 93° 13% - - 35° 93.1° 80.9° - - 1012.0
6/26 7:50am 54 1 G 2 90° 14% - - 35° 91.3° 80.9° - - 1012.0
6/26 7:40am 50 2 G 4 88° 15% - - 34° 89.2° 80.9° - - 1013.0
6/26 7:30am 46 3 G 4 87° 16% - - 35° 88.8° 80.9° - - 1013.0
6/26 7:20am 42 3 G 4 87° 16% - - 36° 88.8° 80.9° - - 1013.0
6/26 7:10am 41 3 G 4 88° 14% - - 33° 88.8° 80.9° - - 1012.0
6/26 7:00am 61 2 G 3 88° 13% - - 31° 88.8° 80.9° - - 1012.0
6/26 6:50am 55 1 G 2 88° 12% - - 30° 88.8° 80.9° - - 1012.0
6/26 6:40am 72 1 G 2 87° 13% - - 30° 87.9° 80.9° - - 1012.0
6/26 6:30am 44 2 G 3 86° 14% - - 30° 86.7° 80.9° - - 1013.0
6/26 6:20am 34 3 G 3 84° 14% - - 30° 86.7° 80.9° - - 1013.0
6/26 6:10am 73 3 G 4 84° 14% - - 30° 86.7° 80.9° - - 1013.0
6/26 6:00am 128 2 G 3 84° 15% - - 31° 86.7° 80.9° - - 1013.0